This is the latest recevied weather packets stored in our database for station/object F4FEB-14. If no packets are shown the sender has not sent any weather packets the latest 10 day(s).
| Time | Temp. | Humidity | Pressure | Rain* | Wind** | Luminosity | Snow |
|---|---|---|---|---|---|---|---|
| 1777494279 | 13.33° C | 100% | 1018.6 hPa | 0 mm | - | - | - |
| 1777493978 | 13.33° C | 100% | 1018.6 hPa | 0 mm | - | - | - |
| 1777493677 | 12.78° C | 100% | 1018.5 hPa | 0 mm | - | - | - |
| 1777493375 | 12.78° C | 100% | 1018.6 hPa | 0 mm | - | - | - |
| 1777493075 | 13.33° C | 100% | 1018.4 hPa | 0 mm | - | - | - |
| 1777492773 | 12.78° C | 100% | 1018.4 hPa | 0 mm | - | - | - |
| 1777492472 | 12.78° C | 100% | 1018.4 hPa | 0 mm | - | - | - |
| 1777491870 | 13.33° C | 100% | 1018.3 hPa | 0 mm | - | - | - |
| 1777491568 | 13.89° C | 100% | 1018.2 hPa | 0 mm | - | - | - |
| 1777491267 | 13.89° C | 94% | 1018 hPa | 0 mm | - | - | - |
| 1777490966 | 14.44° C | 89% | 1018.1 hPa | 0 mm | - | - | - |
| 1777490666 | 15° C | 85% | 1018 hPa | 0 mm | - | - | - |
| 1777490365 | 15° C | 80% | 1018 hPa | 0 mm | - | - | - |
| 1777489761 | 15.56° C | 77% | 1017.9 hPa | 0 mm | - | - | - |
| 1777489460 | 15.56° C | 75% | 1018 hPa | 0 mm | - | - | - |
| 1777489159 | 16.11° C | 74% | 1017.8 hPa | 0 mm | - | - | - |
| 1777488858 | 16.11° C | 71% | 1017.7 hPa | 0 mm | - | - | - |
| 1777488557 | 16.67° C | 67% | 1017.8 hPa | 0 mm | - | - | - |
| 1777488255 | 17.22° C | 66% | 1017.7 hPa | 0 mm | - | - | - |
| 1777487954 | 17.22° C | 66% | 1017.7 hPa | 0 mm | - | - | - |
| 1777487352 | 17.78° C | 65% | 1017.6 hPa | 0 mm | - | - | - |
| 1777487051 | 17.78° C | 67% | 1017.5 hPa | 0 mm | - | - | - |
| 1777486750 | 17.78° C | 66% | 1017.4 hPa | 0 mm | - | - | - |
| 1777486449 | 18.33° C | 65% | 1017.5 hPa | 0 mm | - | - | - |
| 1777485847 | 18.33° C | 64% | 1017.4 hPa | 0 mm | - | - | - |
* Rain latest hour (hover to see other rain measurements)
** Current wind speed in m/s (hover to see current wind gust speed)